BCS666 EGPH-ENBR

Flight info

Callsign BCS666
Flight time N/A
Altitude 25000
Route GRICE P600 ASNUD/N0479F370 DCT BEREP DCT MODNI
Aircraft B77L/H-SDE1E2E3FGHIJ2J3J4J5M1RWXY/LB1D1

Departure

Time 2026-05-06 18:37
Airport Edinburgh Airport (EGPH)

Arrival

Time N/A
Airport Bergen Airport, Flesland (ENBR)
Time Latitude Longitude Altitude Speed Heading
2026-05-06 18:36 56.15530 -3.64771 6004 ft 271 kts 332°
2026-05-06 18:37 56.17218 -3.66278 6002 ft 271 kts 332°
2026-05-06 18:37 56.18960 -3.67426 5989 ft 268 kts 353°
2026-05-06 18:37 56.20807 -3.66911 6178 ft 275 kts 24°
2026-05-06 18:37 56.22446 -3.65086 6996 ft 279 kts 35°
2026-05-06 18:38 56.24034 -3.63023 7915 ft 284 kts 35°
2026-05-06 18:38 56.25639 -3.60911 8857 ft 288 kts 35°
2026-05-06 18:38 56.27254 -3.58793 9667 ft 295 kts 35°
2026-05-06 18:38 56.28954 -3.56570 10462 ft 303 kts 35°
2026-05-06 18:39 56.30705 -3.54307 10801 ft 328 kts 34°
2026-05-06 18:39 56.32649 -3.51833 11043 ft 357 kts 34°
2026-05-06 18:39 56.34751 -3.49155 11470 ft 379 kts 34°
2026-05-06 18:40 56.39145 -3.43505 13392 ft 395 kts 34°
2026-05-06 18:40 56.41384 -3.40585 14383 ft 400 kts 34°
2026-05-06 18:40 56.43657 -3.37618 15326 ft 406 kts 34°
2026-05-06 18:40 56.45974 -3.34647 16236 ft 412 kts 32°
2026-05-06 18:41 56.48355 -3.31702 17138 ft 418 kts 32°
2026-05-06 18:41 56.50780 -3.28734 18036 ft 424 kts 32°
2026-05-06 18:41 56.53239 -3.25717 18842 ft 429 kts 31°
2026-05-06 18:41 56.55718 -3.22661 19650 ft 434 kts 31°
2026-05-06 18:42 56.58224 -3.19555 20448 ft 438 kts 31°
2026-05-06 18:42 56.60752 -3.16408 21222 ft 443 kts 31°
2026-05-06 18:42 56.63307 -3.13224 21960 ft 448 kts 31°
2026-05-06 18:42 56.65891 -3.09998 22708 ft 453 kts 30°
2026-05-06 18:43 56.68486 -3.06690 23446 ft 460 kts 32°
2026-05-06 18:43 56.70965 -3.02930 24066 ft 468 kts 39°
2026-05-06 18:43 56.73278 -2.98711 24735 ft 472 kts 41°
2026-05-06 18:43 56.75570 -2.94401 25421 ft 474 kts 41°
2026-05-06 18:44 56.77862 -2.90061 26112 ft 476 kts 41°
2026-05-06 18:44 56.80165 -2.85703 26804 ft 478 kts 41°
2026-05-06 18:44 56.82484 -2.81328 27420 ft 482 kts 41°
2026-05-06 18:44 56.84838 -2.76904 27903 ft 489 kts 41°
2026-05-06 18:45 56.87223 -2.72427 28440 ft 492 kts 40°
2026-05-06 18:45 56.89612 -2.67938 29049 ft 494 kts 40°
2026-05-06 18:45 56.92013 -2.63421 29626 ft 497 kts 40°
2026-05-06 18:45 56.94431 -2.58865 30140 ft 499 kts 40°
2026-05-06 18:46 56.96845 -2.54307 30696 ft 498 kts 40°
2026-05-06 18:46 56.99242 -2.49765 31404 ft 493 kts 40°
2026-05-06 18:46 57.01583 -2.45318 32146 ft 488 kts 40°
2026-05-06 18:46 57.03927 -2.40859 32856 ft 484 kts 39°
2026-05-06 18:47 57.06254 -2.36427 33510 ft 481 kts 39°
2026-05-06 18:47 57.08570 -2.32013 34081 ft 478 kts 40°
2026-05-06 18:47 57.10885 -2.27596 34402 ft 482 kts 40°
2026-05-06 18:47 57.13222 -2.23133 34571 ft 487 kts 40°
2026-05-06 18:48 57.15576 -2.18626 34881 ft 489 kts 40°
2026-05-06 18:48 57.17932 -2.14102 35239 ft 489 kts 40°
2026-05-06 18:48 57.20288 -2.09563 35561 ft 490 kts 41°
2026-05-06 18:48 57.22647 -2.05012 35851 ft 492 kts 41°
2026-05-06 18:49 57.25015 -2.00433 36140 ft 494 kts 41°
2026-05-06 18:49 57.27388 -1.95835 36456 ft 495 kts 41°
2026-05-06 18:49 57.29764 -1.91223 36749 ft 496 kts 42°
2026-05-06 18:49 57.32148 -1.86587 36974 ft 499 kts 42°
2026-05-06 18:50 57.34552 -1.81904 37013 ft 504 kts 42°
2026-05-06 18:50 57.39376 -1.72475 37047 ft 504 kts 43°
2026-05-06 18:51 57.44176 -1.63048 37046 ft 502 kts 43°
2026-05-06 18:51 57.48959 -1.53620 37047 ft 501 kts 43°
2026-05-06 18:52 57.53730 -1.44179 37047 ft 500 kts 43°
2026-05-06 18:52 57.58458 -1.34787 37052 ft 500 kts 43°
2026-05-06 18:53 57.63212 -1.25304 37052 ft 501 kts 43°
2026-05-06 18:53 57.67969 -1.15776 37056 ft 503 kts 43°
2026-05-06 18:54 57.72740 -1.06180 37056 ft 505 kts 44°
2026-05-06 18:54 57.77521 -0.96520 37058 ft 506 kts 44°
2026-05-06 18:55 57.82308 -0.86811 37055 ft 508 kts 44°
2026-05-06 18:55 57.87099 -0.77050 37055 ft 509 kts 44°
2026-05-06 18:56 57.91887 -0.67254 37056 ft 509 kts 44°
2026-05-06 18:56 57.96674 -0.57420 37061 ft 510 kts 44°
2026-05-06 18:57 58.01459 -0.47549 37057 ft 510 kts 44°
2026-05-06 18:57 58.06231 -0.37660 37060 ft 510 kts 44°
2026-05-06 18:58 58.10999 -0.27738 37061 ft 509 kts 44°
2026-05-06 18:58 58.15753 -0.17803 37055 ft 509 kts 44°